Regional Weather Roundup
Issued by NWS

Home | Current Version | Previous Version | Graphics & Text | Print | Product List | Glossary Off
Versions: 1 2 3 4 5 6 7 8 9 10 11 12 13 14 15 16 17 18 19 20 21 22 23 24 25 26 27 28 29 30 31 32 33 34 35 36 37 38 39 40 41 42 43 44 45 46 47 48 49 50

000
ASUS43 KLSX 271857
RWRMO

WEATHER SUMMARY FOR MISSOURI
NATIONAL WEATHER SERVICE SPRINGFIELD MO
200 PM CDT SAT MAY 27 2017

NOTE: "FAIR" INDICATES FEW OR NO CLOUDS BELOW 12,000 FEET WITH NO
       SIGNIFICANT WEATHER AND/OR OBSTRUCTIONS TO VISIBILITY.
       CURRENT SKY AND/OR WEATHER CONDITIONS ARE NOT AVAILABLE FOR
       CHILLICOTHE AND FARMINGTON.

MOZ001>031-035>038-043-044-053-054-272000-
...NORTHERN AND WESTERN MISSOURI...

CITY           SKY/WX    TMP DP  RH WIND       PRES   REMARKS
KANSAS CTY INT CLOUDY    64  60  87 SW8       29.79R
ST JOSEPH      CLOUDY    67  63  87 SE3       29.79R
CHILLICOTHE      N/A     74  59  59 E5        29.80F

$$
MOZ066>068-077>081-088>096-101>105-272000-
...SOUTHWEST MISSOURI...

CITY           SKY/WX    TMP DP  RH WIND       PRES   REMARKS
SPRINGFIELD    CLOUDY    80  72  76 S13       29.76F
JOPLIN         CLOUDY    80  77  90 N14G22    29.81R THUNDER FOG
BRANSON        PTSUNNY   84  72  65 S12G18    29.82F

$$
MOZ032>034-039>042-045>050-055>058-069>072-272000-
...CENTRAL MISSOURI...

CITY           SKY/WX    TMP DP  RH WIND       PRES   REMARKS
COLUMBIA       NOT AVBL
JEFFERSON CITY TSTM      72  64  76 E9        29.85R
ROLLA          CLOUDY    76  68  76 E8        29.86R
SEDALIA        CLOUDY    71  69  93 N5        29.90R THUNDER
WARRENSBURG    LGT RAIN  59  57  94 NE12G20   29.80F

$$
MOZ051-052-059>065-272000-
...EAST CENTRAL MISSOURI...

CITY           SKY/WX    TMP DP  RH WIND       PRES   REMARKS
ST LOUIS INTL  CLOUDY    80  63  55 SE9       29.86F
SPIRIT OF STL  CLOUDY    77  66  69 E5        29.84F THUNDER

$$
MOZ072>076-082>087-097>100-106>115-272000-
...SOUTH CENTRAL AND SOUTHEAST MISSOURI...

CITY           SKY/WX    TMP DP  RH WIND       PRES   REMARKS
CAPE GIRARDEAU MOSUNNY   86  69  56 SW10G21   29.85F HX  90
POPLAR BLUFF   CLOUDY    81  75  82 SW14      29.84F
WEST PLAINS    MOSUNNY   84  73  69 S12       29.83F HX  90

$$



USA.gov is the U.S. government's official web portal to all federal, state and local government web resources and services.